This is the latest recevied weather packets stored in our database for station/object HS3MXC-2. If no packets are shown the sender has not sent any weather packets the latest 10 day(s).
| Time | Temp. | Humidity | Pressure | Rain* | Wind** | Luminosity | Snow |
|---|---|---|---|---|---|---|---|
| 1777439230 | 30° C | 45% | 996.2 hPa | - | - | - | - |
| 1777438922 | 28.33° C | 37% | 996.3 hPa | - | - | - | - |
| 1777438615 | 28.33° C | 38% | 996.3 hPa | - | - | - | - |
| 1777438308 | 27.78° C | 38% | 996.4 hPa | - | - | - | - |
| 1777438000 | 28.33° C | 38% | 996.5 hPa | - | - | - | - |
| 1777437387 | 27.78° C | 39% | 996.7 hPa | - | - | - | - |
| 1777437080 | 27.78° C | 40% | 996.8 hPa | - | - | - | - |
| 1777436466 | 27.78° C | 40% | 996.9 hPa | - | - | - | - |
| 1777436159 | 27.78° C | 41% | 997 hPa | - | - | - | - |
| 1777435853 | 27.78° C | 42% | 997.1 hPa | - | - | - | - |
| 1777435546 | 27.22° C | 43% | 997.1 hPa | - | - | - | - |
| 1777435239 | 27.22° C | 44% | 997.1 hPa | - | - | - | - |
| 1777434932 | 26.67° C | 46% | 997.2 hPa | - | - | - | - |
| 1777434622 | 26.67° C | 47% | 997.3 hPa | - | - | - | - |
| 1777434314 | 26.67° C | 49% | 997.6 hPa | - | - | - | - |
| 1777434006 | 26.67° C | 49% | 997.6 hPa | - | - | - | - |
| 1777433389 | 26.67° C | 52% | 997.7 hPa | - | - | - | - |
| 1777433082 | 26.11° C | 54% | 997.7 hPa | - | - | - | - |
| 1777432775 | 24.44° C | 53% | 997.7 hPa | - | - | - | - |
| 1777432468 | 25° C | 55% | 997.8 hPa | - | - | - | - |
| 1777432161 | 26.11° C | 58% | 997.8 hPa | - | - | - | - |
| 1777431853 | 25.56° C | 57% | 998 hPa | - | - | - | - |
| 1777431546 | 25.56° C | 56% | 998.1 hPa | - | - | - | - |
| 1777430931 | 25° C | 53% | 998.2 hPa | - | - | - | - |
| 1777430624 | 24.44° C | 55% | 998.2 hPa | - | - | - | - |
* Rain since midnight (hover to see other rain measurements)
** Current wind speed in m/s (hover to see current wind gust speed)